| time (UTC) | temp F | wind direction | speed MPH | gust MPH | rain 1hr in | rain 24hr in | rain mn in | humidity % | barometer mb |
| 20260902233100 | 88 | 224 | 0.0 | 3.0 | 0.00 | 0.05 | 0.05 | 71 | 1023.5 |
| 20260902230408 | 90 | 238 | 1.0 | 3.0 | 0.00 | 0.05 | 0.05 | 69 | 1023.3 |
| 20260902230326 | 90 | 238 | 1.0 | 3.0 | 0.00 | 0.05 | 0.05 | 69 | 1023.3 |
| 20260902230058 | 90 | 195 | 1.0 | 7.0 | 0.00 | 0.05 | 0.05 | 68 | 1023.3 |
| 20260902223019 | 92 | 306 | 2.0 | 11.0 | 0.00 | 0.05 | 0.05 | 64 | 1023.6 |
| 20260902220325 | 92 | 277 | 6.0 | 13.0 | 0.00 | 0.05 | 0.05 | 60 | 1023.5 |
| 20260902220029 | 92 | 299 | 3.0 | 8.0 | 0.00 | 0.05 | 0.05 | 60 | 1023.5 |
| 20260902213011 | 92 | 267 | 3.0 | 6.0 | 0.00 | 0.05 | 0.05 | 59 | 1023.4 |
| 20260902210313 | 93 | 229 | 4.0 | 8.0 | 0.00 | 0.05 | 0.05 | 57 | 1023.7 |
| 20260902210033 | 93 | 193 | 3.0 | 8.0 | 0.00 | 0.05 | 0.05 | 59 | 1023.7 |
| 20260902203036 | 93 | 252 | 3.0 | 13.0 | 0.00 | 0.05 | 0.05 | 57 | 1024.2 |
| 20260902200317 | 93 | 306 | 4.0 | 11.0 | 0.00 | 0.05 | 0.05 | 55 | 1024.6 |
| 20260902200056 | 93 | 314 | 4.0 | 11.0 | 0.00 | 0.05 | 0.05 | 55 | 1024.6 |
| 20260902193016 | 93 | 299 | 4.0 | 14.0 | 0.00 | 0.05 | 0.05 | 55 | 1024.6 |
| 20260902190314 | 93 | 228 | 3.0 | 8.0 | 0.00 | 0.05 | 0.05 | 58 | 1025.0 |
| 20260902183038 | 92 | 237 | 6.0 | 11.0 | 0.00 | 0.05 | 0.05 | 60 | 1024.9 |
| 20260902180336 | 92 | 242 | 4.0 | 9.0 | 0.00 | 0.05 | 0.05 | 65 | 1025.3 |
| 20260902180010 | 92 | 303 | 4.0 | 9.0 | 0.00 | 0.05 | 0.05 | 69 | 1025.4 |
| 20260902173051 | 90 | 221 | 2.0 | 11.0 | 0.00 | 0.05 | 0.05 | 72 | 1025.7 |
| 20260902170322 | 90 | 261 | 2.0 | 8.0 | 0.00 | 0.05 | 0.05 | 73 | 1026.0 |
| 20260902170132 | 90 | 283 | 4.0 | 8.0 | 0.00 | 0.05 | 0.05 | 72 | 1026.0 |
| 20260902163044 | 89 | 224 | 2.0 | 9.0 | 0.00 | 0.05 | 0.05 | 75 | 1026.4 |
| 20260902160315 | 87 | 355 | 4.0 | 9.0 | 0.00 | 0.05 | 0.05 | 77 | 1026.5 |
| 20260902160011 | 87 | 275 | 4.0 | 8.0 | 0.00 | 0.05 | 0.05 | 75 | 1026.5 |
| 20260902153028 | 87 | 301 | 4.0 | 5.0 | 0.00 | 0.05 | 0.05 | 80 | 1026.8 |
| 20260902150350 | 85 | 298 | 1.0 | 5.0 | 0.00 | 0.05 | 0.05 | 83 | 1026.8 |
| 20260902150041 | 85 | 283 | 2.0 | 7.0 | 0.00 | 0.05 | 0.05 | 83 | 1026.8 |
| 20260902143102 | 83 | 222 | 2.0 | 4.0 | 0.00 | 0.05 | 0.05 | 85 | 1026.5 |
| 20260902140335 | 82 | 323 | 0.0 | 5.0 | 0.00 | 0.05 | 0.05 | 90 | 1026.2 |
| 20260902140033 | 82 | 323 | 1.0 | 5.0 | 0.00 | 0.05 | 0.05 | 90 | 1026.3 |
| 20260902133023 | 80 | 307 | 2.0 | 6.0 | 0.00 | 0.05 | 0.05 | 92 | 1026.2 |
| 20260902130405 | 78 | 111 | 0.0 | 2.0 | 0.01 | 0.05 | 0.05 | 98 | 1026.3 |
| 20260902130036 | 78 | 111 | 1.0 | 2.0 | 0.02 | 0.05 | 0.05 | 98 | 1026.2 |
| 20260902123016 | 75 | 181 | 2.0 | 4.0 | 0.05 | 0.05 | 0.05 | 96 | 1026.1 |
| 20260902120328 | 77 | 102 | 2.0 | 4.0 | 0.04 | 0.04 | 0.04 | 94 | 1026.6 |
| 20260902120032 | 77 | 59 | 3.0 | 4.0 | 0.02 | 0.02 | 0.02 | 93 | 1026.7 |
| 20260902113028 | 77 | 242 | 0.0 | 7.0 | 0.00 | 0.00 | 0.00 | 92 | 1026.0 |
| 20260902110345 | 77 | 208 | 4.0 | 8.0 | 0.00 | 0.00 | 0.00 | 92 | 1024.6 |
| 20260902110016 | 76 | 215 | 4.0 | 8.0 | 0.00 | 0.00 | 0.00 | 92 | 1024.7 |
| 20260902103120 | 76 | 198 | 2.0 | 9.0 | 0.00 | 0.00 | 0.00 | 91 | 1024.9 |
| 20260902100359 | 75 | 250 | 2.0 | 6.0 | 0.00 | 0.00 | 0.00 | 90 | 1025.1 |
| 20260902100009 | 75 | 193 | 2.0 | 6.0 | 0.00 | 0.00 | 0.00 | 90 | 1025.1 |
| 20260902093053 | 74 | 294 | 0.0 | 4.0 | 0.00 | 0.00 | 0.00 | 92 | 1025.2 |
| 20260902090353 | 74 | 209 | 1.0 | 3.0 | 0.00 | 0.00 | 0.00 | 92 | 1025.3 |
| 20260902090024 | 74 | 196 | 1.0 | 3.0 | 0.00 | 0.00 | 0.00 | 92 | 1025.3 |
| 20260902083025 | 74 | 170 | 1.0 | 2.0 | 0.00 | 0.00 | 0.00 | 93 | 1025.6 |
| 20260902080339 | 73 | 178 | 1.0 | 3.0 | 0.00 | 0.00 | 0.00 | 93 | 1025.4 |
| 20260902080014 | 73 | 178 | 0.0 | 3.0 | 0.00 | 0.00 | 0.00 | 93 | 1025.4 |
| 20260902073035 | 74 | 178 | 1.0 | 3.0 | 0.00 | 0.04 | 0.00 | 93 | 1025.7 |
| 20260902070332 | 74 | 178 | 0.0 | 3.0 | 0.00 | 0.04 | 0.00 | 93 | 1025.6 |
| 20260902070027 | 74 | 178 | 1.0 | 3.0 | 0.00 | 0.04 | 0.00 | 93 | 1025.6 |
| 20260902063053 | 73 | 178 | 0.0 | 3.0 | 0.00 | 0.05 | 0.00 | 94 | 1025.9 |
| 20260902060328 | 73 | 209 | 0.0 | 3.0 | 0.00 | 0.05 | 0.00 | 94 | 1026.0 |
| 20260902060026 | 73 | 209 | 1.0 | 3.0 | 0.00 | 0.05 | 0.00 | 94 | 1026.0 |
| 20260902053025 | 74 | 196 | 0.0 | 2.0 | 0.00 | 0.05 | 0.00 | 92 | 1025.9 |
| 20260902050336 | 75 | 196 | 0.0 | 3.0 | 0.00 | 0.05 | 0.00 | 91 | 1025.6 |
| 20260902050058 | 75 | 196 | 0.0 | 3.0 | 0.00 | 0.05 | 0.00 | 91 | 1025.6 |
| 20260902043012 | 75 | 251 | 0.0 | 2.0 | 0.00 | 0.05 | 0.00 | 89 | 1025.9 |
| 20260902040413 | 76 | 325 | 1.0 | 2.0 | 0.00 | 0.05 | 0.00 | 86 | 1025.7 |
| 20260902040036 | 76 | 325 | 0.0 | 2.0 | 0.00 | 0.05 | 0.00 | 86 | 1025.7 |
| 20260902033012 | 77 | 305 | 0.0 | 3.0 | 0.00 | 0.05 | 0.05 | 84 | 1025.7 |
| 20260902030311 | 77 | 248 | 2.0 | 6.0 | 0.00 | 0.05 | 0.05 | 82 | 1025.6 |
| 20260902030032 | 77 | 282 | 3.0 | 6.0 | 0.00 | 0.05 | 0.05 | 82 | 1025.6 |
| 20260902023012 | 78 | 311 | 1.0 | 7.0 | 0.00 | 0.05 | 0.05 | 80 | 1025.6 |
| 20260902020329 | 79 | 313 | 0.0 | 6.0 | 0.00 | 0.05 | 0.05 | 77 | 1025.3 |
| 20260902020041 | 79 | 313 | 1.0 | 6.0 | 0.00 | 0.05 | 0.05 | 77 | 1025.3 |
| 20260902013123 | 79 | 325 | 2.0 | 10.0 | 0.00 | 0.06 | 0.05 | 78 | 1025.2 |
| 20260902010317 | 80 | 84 | 1.0 | 4.0 | 0.00 | 0.06 | 0.05 | 77 | 1024.7 |
| 20260902010019 | 80 | 249 | 2.0 | 4.0 | 0.00 | 0.06 | 0.05 | 76 | 1024.6 |
| 20260902003054 | 81 | 231 | 2.0 | 9.0 | 0.00 | 0.06 | 0.05 | 76 | 1024.4 |
| 20260902000355 | 82 | 209 | 2.0 | 15.0 | 0.00 | 0.06 | 0.05 | 78 | 1024.4 |
| 20260902000117 | 82 | 281 | 4.0 | 15.0 | 0.00 | 0.06 | 0.05 | 78 | 1024.4 |